Location: Bothwell
(42.3833°S, 147.0000°E)
Time: 09:27:31
(UTC+11:00)

NANOSAT C BR1 - Pass Details

Date: 30 November 2023
Orbit: 557 x 573 km, 98.1° (Epoch: 27 February)

Event Time Altitude Azimuth Distance (km) Brightness Sun altitude
Exits shadow 04:01:58 17° 351° (N) 1,514 ? -13.6°
Maximum altitude 04:04:59 49° 280° (W) 757 ? -13.2°
Drops below altitude 10° 04:09:04 10° 204° (SSW) 1,932 ? -12.7°
Sets 04:11:19 0° 198° (SSW) 2,844 ? -12.4°
